VANOK Weather Reports


time (UTC)temp
F
wind
direction
speed
knots
gust
knots
rain 1hr
in
rain 24hr
in
rain mn
in
humidity
%
barometer
mb
20260906062458 55 313 6.1 8.7 0.00 0.00 0.00 76 1008.4
20260906060454 54 344 10.4 14.8 0.00 0.00 0.00 74 1008.2
20260906054457 53 341 11.3 14.8 0.00 0.00 0.00 74 1008.0
20260906052458 54 343 9.6 14.8 0.00 0.00 0.00 74 1007.8
20260906050459 53 341 11.3 18.2 0.00 0.00 0.00 76 1007.5
20260906042455 53 341 13.0 20.0 0.00 0.00 0.00 79 1007.1
20260906040458 53 344 13.0 18.2 0.00 0.00 0.00 79 1006.7
20260906034128 52 340 13.9 20.9 0.00 0.00 0.00 80 1006.4
20260906032457 52 337 14.8 20.9 0.00 0.00 0.00 80 1006.1
20260906030458 52 330 13.9 20.0 0.00 0.00 0.00 80 1006.0
20260906024458 52 332 13.9 21.7 0.00 0.00 0.00 81 1005.8
20260906022458 52 326 13.9 20.9 0.00 0.00 0.00 81 1005.6
20260906020458 53 342 14.8 22.6 0.00 0.00 0.00 79 1005.4
20260906014459 52 344 14.8 20.9 0.00 0.00 0.00 79 1005.1
20260906012457 53 343 16.5 22.6 0.00 0.00 0.00 77 1004.9
20260906010458 53 346 16.5 24.3 0.00 0.00 0.00 77 1004.7
20260906004459 53 348 14.8 21.7 0.00 0.00 0.00 77 1004.4
20260906002457 53 337 18.2 24.3 0.00 0.00 0.00 79 1004.1
20260906000127 53 341 14.8 21.7 0.00 0.00 0.00 79 1003.9
20260905234456 54 341 16.5 22.6 0.00 0.00 0.00 79 1003.7
20260905232456 55 343 16.5 24.3 0.00 0.00 0.00 74 1003.3
20260905230456 55 347 13.0 19.1 0.00 0.00 0.00 80 1003.0
20260905224128 56 348 14.8 20.9 0.00 0.00 0.00 79 1002.7
20260905222456 56 348 14.8 20.9 0.00 0.00 0.00 78 1002.5
20260905220457 56 352 15.6 22.6 0.00 0.00 0.00 77 1002.3
20260905214457 58 348 13.9 20.9 0.00 0.00 0.00 79 1002.0
20260905212457 58 334 13.0 18.2 0.00 0.00 0.00 81 1001.8
20260905210126 58 324 11.3 16.5 0.00 0.00 0.00 83 1001.5
20260905204456 58 317 12.2 16.5 0.00 0.00 0.00 83 1001.3
20260905202456 58 314 10.4 15.6 0.00 0.00 0.00 82 1001.1
20260905200457 58 316 11.3 17.4 0.00 0.00 0.00 81 1000.8
20260905194126 58 313 11.3 16.5 0.00 0.00 0.00 82 1000.8
20260905192127 59 305 11.3 16.5 0.00 0.00 0.00 81 1000.6
20260905190126 59 305 12.2 15.6 0.00 0.00 0.00 80 1000.6
20260905184457 59 301 12.2 16.5 0.00 0.00 0.00 77 1000.5
20260905182455 59 300 12.2 16.5 0.00 0.00 0.00 76 1000.3
20260905180453 60 301 12.2 17.4 0.00 0.00 0.00 75 1000.2
20260905174125 60 302 12.2 17.4 0.00 0.00 0.00 75 1000.0
20260905172454 60 298 11.3 15.6 0.00 0.00 0.00 76 999.8
20260905170455 60 298 10.4 15.6 0.00 0.00 0.00 73 999.6
20260905164456 60 302 12.2 16.5 0.00 0.00 0.00 71 999.5
20260905162453 60 314 12.2 18.2 0.00 0.00 0.00 71 999.3
20260905160455 61 317 11.3 16.5 0.00 0.00 0.00 71 999.1
20260905154454 62 307 9.6 15.6 0.00 0.00 0.00 66 998.8
20260905152455 62 304 10.4 14.8 0.00 0.00 0.00 65 998.7
20260905150455 62 304 11.3 17.4 0.00 0.00 0.00 64 998.6
20260905144455 63 299 11.3 16.5 0.00 0.00 0.00 59 998.4
20260905142455 62 298 12.2 16.5 0.00 0.00 0.00 56 998.3
20260905140455 63 298 11.3 17.4 0.00 0.00 0.00 61 998.1
20260905134454 63 297 11.3 14.8 0.00 0.00 0.00 61 998.0
20260905132452 64 299 11.3 15.6 0.00 0.00 0.00 55 997.8
20260905130459 63 292 9.6 14.8 0.00 0.00 0.00 57 997.7
20260905124454 64 299 10.4 15.6 0.00 0.00 0.00 57 997.5
20260905122454 64 311 9.6 13.9 0.00 0.00 0.00 59 997.5
20260905120454 63 309 7.0 13.0 0.00 0.00 0.00 57 997.3
20260905114455 63 289 7.0 10.4 0.00 0.00 0.00 62 997.2
20260905112456 62 292 6.1 10.4 0.00 0.00 0.00 64 997.1
20260905110453 62 295 7.0 9.6 0.00 0.00 0.00 64 996.9
20260905104455 62 298 6.1 8.7 0.00 0.00 0.00 65 996.7
20260905090455 58 303 6.1 8.7 0.00 0.00 0.00 74 995.9
20260905084455 58 322 5.2 9.6 0.00 0.00 0.00 74 995.9
20260905080123 58 336 5.2 9.6 0.00 0.00 0.00 76 995.6
20260905074452 58 330 5.2 9.6 0.00 0.00 0.00 74 995.4
20260905072452 58 329 7.0 8.7 0.00 0.00 0.00 77 995.3
20260905070455 57 348 5.2 7.8 0.00 0.00 0.00 83 995.2